,,Stat6,,Stat2,,Stat8,,Stat9,,Stat10,,Wind1,,Wind1,
time,status,PA1M_AVG,status,PR1M_SUM,status,RH1M_AVG,status,SR1M_AVG,status,TA1M_AVG,status,W1dAve1m,status,W1sAve1m,
2008-02-10, 00:00:00,VALID,917.65,VALID,0,VALID,93.5303,VALID,-0.101885,VALID,20.2804,VALID,156,VALID,1.26699,
2008-02-10, 00:01:00,VALID,917.631,VALID,0,VALID,93.4947,VALID,-0.0849042,VALID,20.2931,VALID,156,VALID,1.5055,
2008-02-10, 00:02:00,VALID,917.615,VALID,0,VALID,93.3917,VALID,-0.118866,VALID,20.3131,VALID,148,VALID,1.62195,
2008-02-10, 00:03:00,VALID,917.584,VALID,0,VALID,93.2913,VALID,-0.101885,VALID,20.3226,VALID,149,VALID,1.7017,
2008-02-10, 00:04:00,VALID,917.579,VALID,0,VALID,93.2277,VALID,-0.101885,VALID,20.3356,VALID,138,VALID,1.0173,
2008-02-10, 00:05:00,VALID,917.556,VALID,0,VALID,93.2315,VALID,-0.101885,VALID,20.3485,VALID,138,VALID,0.972284,
2008-02-10, 00:06:00,VALID,917.538,VALID,0,VALID,93.3434,VALID,-0.101885,VALID,20.3231,VALID,142,VALID,1.27708,
2008-02-10, 00:07:00,VALID,917.51,VALID,0,VALID,93.5278,VALID,-0.118866,VALID,20.2869,VALID,143,VALID,1.50309,
2008-02-10, 00:08:00,VALID,917.49,VALID,0,VALID,93.7007,VALID,-0.101885,VALID,20.2642,VALID,144,VALID,1.39844,
2008-02-10, 00:09:00,VALID,917.474,VALID,0,VALID,93.8457,VALID,-0.0679233,VALID,20.2414,VALID,135,VALID,1.28411,
2008-02-10, 00:10:00,VALID,917.459,VALID,0,VALID,93.9512,VALID,-0.101885,VALID,20.2155,VALID,135,VALID,1.31324,
2008-02-10, 00:11:00,VALID,917.433,VALID,0,VALID,94.1254,VALID,-0.101885,VALID,20.1795,VALID,131,VALID,0.984566,
2008-02-10, 00:12:00,VALID,917.416,VALID,0,VALID,94.2933,VALID,-0.0679233,VALID,20.1633,VALID,151,VALID,1.12682,
2008-02-10, 00:13:00,VALID,917.393,VALID,0,VALID,94.3645,VALID,0.0169808,VALID,20.1588,VALID,130,VALID,1.08031,
2008-02-10, 00:14:00,VALID,917.365,VALID,0,VALID,94.4243,VALID,0.0169808,VALID,20.1326,VALID,128,VALID,1.32467,
2008-02-10, 00:15:00,VALID,917.337,VALID,0,VALID,94.5603,VALID,0.0169808,VALID,20.1166,VALID,141,VALID,1.6651,
2008-02-10, 00:16:00,VALID,917.322,VALID,0,VALID,94.6837,VALID,0,VALID,20.0966,VALID,133,VALID,1.44283,
2008-02-10, 00:17:00,VALID,917.293,VALID,0,VALID,94.7969,VALID,-0.0169808,VALID,20.0872,VALID,148,VALID,1.76635,
2008-02-10, 00:18:00,VALID,917.271,VALID,0,VALID,94.8452,VALID,0.0169808,VALID,20.0872,VALID,154,VALID,1.84502,
2008-02-10, 00:19:00,VALID,917.248,VALID,0,VALID,94.7918,VALID,0,VALID,20.0969,VALID,145,VALID,1.5959,
2008-02-10, 00:20:00,VALID,917.233,VALID,0,VALID,94.8134,VALID,0,VALID,20.1039,VALID,135,VALID,2.10213,
2008-02-10, 00:21:00,VALID,917.217,VALID,0,VALID,94.9113,VALID,0,VALID,20.0842,VALID,142,VALID,2.07013,
2008-02-10, 00:22:00,VALID,917.195,VALID,0,VALID,94.9889,VALID,0,VALID,20.0744,VALID,145,VALID,1.35747,
2008-02-10, 00:23:00,VALID,917.182,VALID,0,VALID,95.0346,VALID,0,VALID,20.0817,VALID,139,VALID,1.8474,
2008-02-10, 00:24:00,VALID,917.163,VALID,0,VALID,95.0639,VALID,-0.0169808,VALID,20.0782,VALID,138,VALID,1.53143,
2008-02-10, 00:25:00,VALID,917.132,VALID,0,VALID,95.0664,VALID,0.0169808,VALID,20.0709,VALID,153,VALID,1.6377,
2008-02-10, 00:26:00,VALID,917.106,VALID,0,VALID,95.0308,VALID,0.0169808,VALID,20.0677,VALID,148,VALID,1.42188,
2008-02-10, 00:27:00,VALID,917.102,VALID,0,VALID,94.9545,VALID,0.0339617,VALID,20.0709,VALID,142,VALID,1.47075,
2008-02-10, 00:28:00,VALID,917.084,VALID,0,VALID,94.8464,VALID,0,VALID,20.0709,VALID,166,VALID,1.93114,
2008-02-10, 00:29:00,VALID,917.073,VALID,0,VALID,94.718,VALID,0.0169808,VALID,20.0907,VALID,151,VALID,1.64977,
2008-02-10, 00:30:00,VALID,917.071,VALID,0,VALID,94.6315,VALID,0,VALID,20.0939,VALID,148,VALID,1.70131,
2008-02-10, 00:31:00,VALID,917.059,VALID,0,VALID,94.423,VALID,0,VALID,20.1164,VALID,155,VALID,1.70845,
2008-02-10, 00:32:00,VALID,917.069,VALID,0,VALID,94.2462,VALID,0.0169808,VALID,20.1523,VALID,137,VALID,1.61052,
2008-02-10, 00:33:00,VALID,917.043,VALID,0,VALID,94.1763,VALID,0,VALID,20.1561,VALID,143,VALID,1.67321,
2008-02-10, 00:34:00,VALID,917.029,VALID,0,VALID,94.1687,VALID,-0.0169808,VALID,20.1488,VALID,137,VALID,1.375,
2008-02-10, 00:35:00,VALID,917.039,VALID,0,VALID,94.1738,VALID,0.0169808,VALID,20.159,VALID,136,VALID,1.5465,
2008-02-10, 00:36:00,VALID,917.016,VALID,0,VALID,94.2221,VALID,0.0509425,VALID,20.1358,VALID,153,VALID,1.67436,
2008-02-10, 00:37:00,VALID,917.035,VALID,0,VALID,94.2106,VALID,0.0509425,VALID,20.1456,VALID,145,VALID,1.17932,
2008-02-10, 00:38:00,VALID,917.034,VALID,0,VALID,94.1585,VALID,0,VALID,20.1391,VALID,152,VALID,1.36665,
2008-02-10, 00:39:00,VALID,917.022,VALID,0,VALID,94.0975,VALID,0.0509425,VALID,20.1453,VALID,155,VALID,1.14364,
2008-02-10, 00:40:00,VALID,917.018,VALID,0,VALID,94.0466,VALID,0.0339617,VALID,20.1423,VALID,148,VALID,0.0567835,
2008-02-10, 00:41:00,VALID,917.014,VALID,0,VALID,93.9983,VALID,0.0169808,VALID,20.1488,VALID,135,VALID,0.461868,
2008-02-10, 00:42:00,VALID,917.016,VALID,0,VALID,93.9728,VALID,0.0339617,VALID,20.1391,VALID,146,VALID,1.64208,
2008-02-10, 00:43:00,VALID,917.005,VALID,0,VALID,93.8139,VALID,-0.0169808,VALID,20.1593,VALID,151,VALID,1.99275,
2008-02-10, 00:44:00,VALID,917.011,VALID,0,VALID,93.5189,VALID,-0.0339617,VALID,20.1977,VALID,152,VALID,1.42242,
2008-02-10, 00:45:00,VALID,917.012,VALID,0,VALID,93.2849,VALID,0,VALID,20.2399,VALID,140,VALID,1.44531,
2008-02-10, 00:46:00,VALID,917.003,VALID,0,VALID,93.0077,VALID,-0.0339617,VALID,20.2791,VALID,135,VALID,1.8912,
2008-02-10, 00:47:00,VALID,917.001,VALID,0,VALID,92.6122,VALID,0,VALID,20.3475,VALID,142,VALID,1.58966,
2008-02-10, 00:48:00,VALID,916.975,VALID,0,VALID,92.4278,VALID,-0.0679233,VALID,20.3897,VALID,129,VALID,1.27049,
2008-02-10, 00:49:00,VALID,916.956,VALID,0,VALID,92.4088,VALID,-0.0169808,VALID,20.3862,VALID,132,VALID,1.97266,
2008-02-10, 00:50:00,VALID,916.941,VALID,0,VALID,92.3694,VALID,0,VALID,20.3922,VALID,131,VALID,2.10076,
2008-02-10, 00:51:00,VALID,916.903,VALID,0,VALID,92.3185,VALID,0.0169808,VALID,20.4019,VALID,141,VALID,1.62865,
2008-02-10, 00:52:00,VALID,916.881,VALID,0,VALID,92.3694,VALID,-0.0339617,VALID,20.3924,VALID,137,VALID,1.27344,
2008-02-10, 00:53:00,VALID,916.873,VALID,0,VALID,92.4724,VALID,-0.0339617,VALID,20.3702,VALID,127,VALID,1.61886,
2008-02-10, 00:54:00,VALID,916.847,VALID,0,VALID,92.6898,VALID,-0.0169808,VALID,20.3305,VALID,137,VALID,1.85884,
2008-02-10, 00:55:00,VALID,916.843,VALID,0,VALID,92.822,VALID,0,VALID,20.3081,VALID,142,VALID,1.72154,
2008-02-10, 00:56:00,VALID,916.822,VALID,0,VALID,92.9581,VALID,0,VALID,20.2864,VALID,136,VALID,2.02493,
2008-02-10, 00:57:00,VALID,916.798,VALID,0,VALID,93.028,VALID,0,VALID,20.2796,VALID,128,VALID,2.12464,
2008-02-10, 00:58:00,VALID,916.788,VALID,0,VALID,92.6186,VALID,-0.0509425,VALID,20.3513,VALID,110,VALID,2.59784,
2008-02-10, 00:59:00,VALID,916.801,VALID,0,VALID,92.3172,VALID,-0.0509425,VALID,20.3964,VALID,139,VALID,1.47337,
2008-02-10, 01:00:00,VALID,916.81,VALID,0,VALID,92.3185,VALID,-0.0509425,VALID,20.3894,VALID,152,VALID,1.12965,
2008-02-10, 01:01:00,VALID,916.829,VALID,0,VALID,92.3935,VALID,0,VALID,20.3862,VALID,151,VALID,1.57195,
2008-02-10, 01:02:00,VALID,916.828,VALID,0,VALID,92.5982,VALID,-0.0339617,VALID,20.364,VALID,160,VALID,1.12355,
2008-02-10, 01:03:00,VALID,916.836,VALID,0,VALID,92.7216,VALID,-0.0169808,VALID,20.3313,VALID,160,VALID,1.11192,
2008-02-10, 01:04:00,VALID,916.835,VALID,0,VALID,92.8945,VALID,-0.0509425,VALID,20.3086,VALID,156,VALID,1.34242,
2008-02-10, 01:05:00,VALID,916.839,VALID,0,VALID,93.0319,VALID,-0.0169808,VALID,20.2791,VALID,153,VALID,1.44931,
2008-02-10, 01:06:00,VALID,916.822,VALID,0,VALID,93.2188,VALID,-0.0169808,VALID,20.2469,VALID,169,VALID,1.752,
2008-02-10, 01:07:00,VALID,916.813,VALID,0,VALID,93.4261,VALID,-0.0169808,VALID,20.2182,VALID,146,VALID,1.17243,
2008-02-10, 01:08:00,VALID,916.81,VALID,0,VALID,93.5291,VALID,0,VALID,20.1688,VALID,108,VALID,0.929688,
2008-02-10, 01:09:00,VALID,916.792,VALID,0,VALID,93.7579,VALID,-0.0679233,VALID,20.1366,VALID,131,VALID,1.34748,
2008-02-10, 01:10:00,VALID,916.784,VALID,0,VALID,93.936,VALID,-0.0509425,VALID,20.1139,VALID,143,VALID,1.7158,
2008-02-10, 01:11:00,VALID,916.755,VALID,0,VALID,94.0174,VALID,-0.0339617,VALID,20.1071,VALID,135,VALID,1.72656,
2008-02-10, 01:12:00,VALID,916.742,VALID,0,VALID,94.0733,VALID,-0.0169808,VALID,20.1034,VALID,140,VALID,1.69798,
2008-02-10, 01:13:00,VALID,916.719,VALID,0,VALID,94.1839,VALID,0,VALID,20.1039,VALID,152,VALID,1.02649,
2008-02-10, 01:14:00,VALID,916.731,VALID,0,VALID,94.1966,VALID,-0.0169808,VALID,20.0744,VALID,144,VALID,0.984581,
2008-02-10, 01:15:00,VALID,916.706,VALID,0,VALID,94.2997,VALID,0,VALID,20.0522,VALID,150,VALID,1.10063,
2008-02-10, 01:16:00,VALID,916.703,VALID,0,VALID,94.4751,VALID,0,VALID,20.0125,VALID,158,VALID,0.816034,
2008-02-10, 01:17:00,VALID,916.709,VALID,0,VALID,94.5883,VALID,0,VALID,19.9703,VALID,124,VALID,0.649891,
2008-02-10, 01:18:00,VALID,916.692,VALID,0,VALID,94.8515,VALID,-0.0169808,VALID,19.9219,VALID,149,VALID,0.139509,
2008-02-10, 01:19:00,VALID,916.693,VALID,0,VALID,95.1046,VALID,0,VALID,19.8827,VALID,136,VALID,0.249619,
2008-02-10, 01:20:00,VALID,916.672,VALID,0,VALID,95.2775,VALID,-0.0169808,VALID,19.86,VALID,144,VALID,0.711285,
2008-02-10, 01:21:00,VALID,916.677,VALID,0,VALID,95.4708,VALID,-0.0169808,VALID,19.8308,VALID,138,VALID,1.26953,
2008-02-10, 01:22:00,VALID,916.652,VALID,0,VALID,95.6348,VALID,-0.0169808,VALID,19.8016,VALID,155,VALID,1.36594,
2008-02-10, 01:23:00,VALID,916.637,VALID,0,VALID,95.7353,VALID,0,VALID,19.7984,VALID,152,VALID,1.49368,
2008-02-10, 01:24:00,VALID,916.637,VALID,0,VALID,95.7277,VALID,-0.0339617,VALID,19.7989,VALID,160,VALID,1.15168,
2008-02-10, 01:25:00,VALID,916.615,VALID,0,VALID,95.706,VALID,-0.0339617,VALID,19.7986,VALID,161,VALID,1.4641,
2008-02-10, 01:26:00,VALID,916.611,VALID,0,VALID,95.6412,VALID,0,VALID,19.7986,VALID,155,VALID,1.14606,
2008-02-10, 01:27:00,VALID,916.611,VALID,0,VALID,95.6641,VALID,-0.0339617,VALID,19.8021,VALID,146,VALID,1.02455,
2008-02-10, 01:28:00,VALID,916.606,VALID,0,VALID,95.6463,VALID,-0.0169808,VALID,19.8181,VALID,141,VALID,0.633371,
2008-02-10, 01:29:00,VALID,916.596,VALID,0,VALID,95.4746,VALID,-0.0339617,VALID,19.8411,VALID,152,VALID,0,
2008-02-10, 01:30:00,VALID,916.585,VALID,0,VALID,95.4174,VALID,-0.0509425,VALID,19.8411,VALID,149,VALID,0.235828,
2008-02-10, 01:31:00,VALID,916.572,VALID,0,VALID,95.4021,VALID,-0.0509425,VALID,19.8543,VALID,147,VALID,1.08079,
2008-02-10, 01:32:00,VALID,916.573,VALID,0,VALID,95.3691,VALID,-0.0679233,VALID,19.8738,VALID,145,VALID,1.38086,
2008-02-10, 01:33:00,VALID,916.558,VALID,0,VALID,95.1554,VALID,-0.0339617,VALID,19.9322,VALID,123,VALID,1.69902,
2008-02-10, 01:34:00,VALID,916.538,VALID,0,VALID,94.7727,VALID,-0.0509425,VALID,19.9838,VALID,130,VALID,0.876906,
2008-02-10, 01:35:00,VALID,916.523,VALID,0,VALID,94.6125,VALID,-0.0169808,VALID,20.0133,VALID,139,VALID,1.2191,
2008-02-10, 01:36:00,VALID,916.495,VALID,0,VALID,94.5006,VALID,-0.0339617,VALID,20.0487,VALID,152,VALID,1.42614,
2008-02-10, 01:37:00,VALID,916.471,VALID,0,VALID,94.2933,VALID,-0.0169808,VALID,20.0742,VALID,140,VALID,1.39501,
2008-02-10, 01:38:00,VALID,916.456,VALID,0,VALID,94.1916,VALID,-0.0339617,VALID,20.1104,VALID,144,VALID,2.0665,
2008-02-10, 01:39:00,VALID,916.449,VALID,0,VALID,93.9271,VALID,0,VALID,20.1755,VALID,134,VALID,1.6557,
2008-02-10, 01:40:00,VALID,916.46,VALID,0,VALID,93.7033,VALID,-0.0509425,VALID,20.211,VALID,135,VALID,1.28711,
2008-02-10, 01:41:00,VALID,916.464,VALID,0,VALID,93.6193,VALID,0,VALID,20.2334,VALID,126,VALID,1.5189,
2008-02-10, 01:42:00,VALID,916.457,VALID,0,VALID,93.5443,VALID,-0.0339617,VALID,20.2334,VALID,133,VALID,1.1788,
2008-02-10, 01:43:00,VALID,916.445,VALID,0,VALID,93.571,VALID,-0.0679233,VALID,20.2309,VALID,157,VALID,1.13814,
2008-02-10, 01:44:00,VALID,916.442,VALID,0,VALID,93.6321,VALID,-0.0679233,VALID,20.2085,VALID,157,VALID,1.07135,
2008-02-10, 01:45:00,VALID,916.44,VALID,0,VALID,93.8012,VALID,-0.101885,VALID,20.176,VALID,143,VALID,1.05357,
2008-02-10, 01:46:00,VALID,916.415,VALID,0,VALID,93.9894,VALID,-0.101885,VALID,20.1403,VALID,148,VALID,1.59152,
2008-02-10, 01:47:00,VALID,916.418,VALID,0,VALID,94.0809,VALID,-0.0339617,VALID,20.1331,VALID,135,VALID,1.2487,
2008-02-10, 01:48:00,VALID,916.411,VALID,0,VALID,94.1064,VALID,-0.0339617,VALID,20.1296,VALID,134,VALID,1.2649,
2008-02-10, 01:49:00,VALID,916.412,VALID,0,VALID,94.0631,VALID,-0.0509425,VALID,20.1598,VALID,152,VALID,0.495094,
2008-02-10, 01:50:00,VALID,916.395,VALID,0,VALID,94.0237,VALID,-0.0509425,VALID,20.166,VALID,143,VALID,0.805596,
2008-02-10, 01:51:00,VALID,916.406,VALID,0,VALID,94.0301,VALID,-0.0509425,VALID,20.162,VALID,127,VALID,1.17408,
2008-02-10, 01:52:00,VALID,916.389,VALID,0,VALID,93.9805,VALID,-0.0849042,VALID,20.1823,VALID,161,VALID,0.287972,
2008-02-10, 01:53:00,VALID,916.387,VALID,0,VALID,93.9538,VALID,-0.0849042,VALID,20.1758,VALID,122,VALID,0.0194404,
2008-02-10, 01:54:00,VALID,916.375,VALID,0,VALID,93.9589,VALID,-0.0679233,VALID,20.1888,VALID,153,VALID,0.599805,
2008-02-10, 01:55:00,VALID,916.353,VALID,0,VALID,93.9042,VALID,-0.0509425,VALID,20.1853,VALID,138,VALID,0.948742,
2008-02-10, 01:56:00,VALID,916.345,VALID,0,VALID,93.9245,VALID,-0.0339617,VALID,20.182,VALID,145,VALID,0.869913,
2008-02-10, 01:57:00,VALID,916.316,VALID,0,VALID,93.8864,VALID,-0.101885,VALID,20.185,VALID,145,VALID,1.0408,
2008-02-10, 01:58:00,VALID,916.301,VALID,0,VALID,93.8737,VALID,-0.0679233,VALID,20.1888,VALID,175,VALID,0.422569,
2008-02-10, 01:59:00,VALID,916.284,VALID,0,VALID,93.9055,VALID,-0.0339617,VALID,20.1785,VALID,163,VALID,1.1077,
2008-02-10, 02:00:00,VALID,916.274,VALID,0,VALID,93.9589,VALID,-0.0849042,VALID,20.1693,VALID,178,VALID,0.885671,
2008-02-10, 02:01:00,VALID,916.251,VALID,0,VALID,94.0402,VALID,-0.0679233,VALID,20.1431,VALID,165,VALID,0.872266,
2008-02-10, 02:02:00,VALID,916.244,VALID,0,VALID,94.1509,VALID,-0.0509425,VALID,20.1271,VALID,176,VALID,0.739383,
2008-02-10, 02:03:00,VALID,916.222,VALID,0,VALID,94.2475,VALID,-0.0509425,VALID,20.0976,VALID,174,VALID,0.642624,
2008-02-10, 02:04:00,VALID,916.207,VALID,0,VALID,94.3988,VALID,-0.0509425,VALID,20.0814,VALID,179,VALID,0.438453,
2008-02-10, 02:05:00,VALID,916.167,VALID,0,VALID,94.4815,VALID,-0.0849042,VALID,20.0655,VALID,119,VALID,0.34468,
2008-02-10, 02:06:00,VALID,916.142,VALID,0,VALID,94.5489,VALID,-0.0679233,VALID,20.0392,VALID,127,VALID,0,
2008-02-10, 02:07:00,VALID,916.1,VALID,0,VALID,94.6773,VALID,-0.0339617,VALID,20.0098,VALID,131,VALID,0,
2008-02-10, 02:08:00,VALID,916.059,VALID,0,VALID,94.8261,VALID,-0.0339617,VALID,19.9878,VALID,128,VALID,0,
2008-02-10, 02:09:00,VALID,916.009,VALID,0,VALID,94.9596,VALID,-0.0509425,VALID,19.9549,VALID,127,VALID,0.608631,
2008-02-10, 02:10:00,VALID,915.974,VALID,0,VALID,95.0919,VALID,-0.0679233,VALID,19.9287,VALID,104,VALID,0.993862,
2008-02-10, 02:11:00,VALID,915.934,VALID,0,VALID,95.2572,VALID,-0.0679233,VALID,19.8832,VALID,110,VALID,0.876389,
2008-02-10, 02:12:00,VALID,915.907,VALID,0,VALID,95.4619,VALID,-0.0509425,VALID,19.8543,VALID,107,VALID,0.560454,
2008-02-10, 02:13:00,VALID,915.883,VALID,0,VALID,95.6463,VALID,-0.0849042,VALID,19.8251,VALID,120,VALID,1.50457,
2008-02-10, 02:14:00,VALID,915.877,VALID,0,VALID,95.776,VALID,-0.0509425,VALID,19.8056,VALID,116,VALID,1.51086,
2008-02-10, 02:15:00,VALID,915.867,VALID,0,VALID,95.8726,VALID,-0.0679233,VALID,19.7762,VALID,113,VALID,1.71494,
2008-02-10, 02:16:00,VALID,915.875,VALID,0,VALID,95.9235,VALID,-0.0509425,VALID,19.7732,VALID,116,VALID,1.31995,
2008-02-10, 02:17:00,VALID,915.884,VALID,0,VALID,96.0036,VALID,-0.0679233,VALID,19.7632,VALID,131,VALID,1.3924,
2008-02-10, 02:18:00,VALID,915.901,VALID,0,VALID,96.0697,VALID,-0.0509425,VALID,19.747,VALID,143,VALID,1.43306,
2008-02-10, 02:19:00,VALID,915.916,VALID,0,VALID,96.1257,VALID,-0.0339617,VALID,19.7475,VALID,122,VALID,1.19425,
2008-02-10, 02:20:00,VALID,915.919,VALID,0,VALID,96.2439,VALID,-0.0169808,VALID,19.7143,VALID,148,VALID,1.02255,
2008-02-10, 02:21:00,VALID,915.93,VALID,0,VALID,96.4016,VALID,-0.101885,VALID,19.6953,VALID,126,VALID,1.48349,
2008-02-10, 02:22:00,VALID,915.918,VALID,0,VALID,96.5479,VALID,-0.0509425,VALID,19.6659,VALID,137,VALID,0.955357,
2008-02-10, 02:23:00,VALID,915.91,VALID,0,VALID,96.6903,VALID,-0.0679233,VALID,19.6432,VALID,150,VALID,0.845385,
2008-02-10, 02:24:00,VALID,915.908,VALID,0,VALID,96.8098,VALID,-0.0849042,VALID,19.6177,VALID,152,VALID,0.162919,
2008-02-10, 02:25:00,VALID,915.88,VALID,0,VALID,96.8848,VALID,-0.0509425,VALID,19.601,VALID,138,VALID,0,
2008-02-10, 02:26:00,VALID,915.853,VALID,0,VALID,96.9738,VALID,-0.0679233,VALID,19.5813,VALID,164,VALID,0,
2008-02-10, 02:27:00,VALID,915.842,VALID,0,VALID,97.0781,VALID,-0.0339617,VALID,19.5818,VALID,162,VALID,0.213477,
2008-02-10, 02:28:00,VALID,915.813,VALID,0,VALID,97.1595,VALID,-0.0509425,VALID,19.5715,VALID,172,VALID,0.273996,
2008-02-10, 02:29:00,VALID,915.79,VALID,0,VALID,97.1099,VALID,-0.0509425,VALID,19.581,VALID,144,VALID,0.152058,
2008-02-10, 02:30:00,VALID,915.792,VALID,0,VALID,97.0972,VALID,-0.0679233,VALID,19.5915,VALID,136,VALID,0,
2008-02-10, 02:31:00,VALID,915.781,VALID,0,VALID,97.087,VALID,-0.101885,VALID,19.588,VALID,181,VALID,0.0508721,
2008-02-10, 02:32:00,VALID,915.781,VALID,0,VALID,97.0629,VALID,-0.0509425,VALID,19.6045,VALID,166,VALID,0.338956,
2008-02-10, 02:33:00,VALID,915.785,VALID,0,VALID,96.9497,VALID,-0.0509425,VALID,19.6334,VALID,162,VALID,0.0195313,
2008-02-10, 02:34:00,VALID,915.809,VALID,0,VALID,96.75,VALID,-0.0509425,VALID,19.6724,VALID,185,VALID,0.239826,
2008-02-10, 02:35:00,VALID,915.824,VALID,0,VALID,96.6013,VALID,-0.0679233,VALID,19.7053,VALID,191,VALID,0.0158026,
2008-02-10, 02:36:00,VALID,915.849,VALID,0,VALID,96.4652,VALID,-0.0679233,VALID,19.721,VALID,198,VALID,0.00218023,
2008-02-10, 02:37:00,VALID,915.859,VALID,0,VALID,96.3291,VALID,-0.0509425,VALID,19.7405,VALID,222,VALID,0,
2008-02-10, 02:38:00,VALID,915.89,VALID,0,VALID,96.2045,VALID,-0.0509425,VALID,19.7567,VALID,213,VALID,0.00130208,
2008-02-10, 02:39:00,VALID,915.889,VALID,0,VALID,96.1549,VALID,-0.0509425,VALID,19.7634,VALID,207,VALID,0,
2008-02-10, 02:40:00,VALID,915.932,VALID,0,VALID,96.1104,VALID,-0.0679233,VALID,19.753,VALID,212,VALID,0,
2008-02-10, 02:41:00,VALID,915.93,VALID,0,VALID,96.1626,VALID,-0.0509425,VALID,19.7505,VALID,225,VALID,0,
2008-02-10, 02:42:00,VALID,915.951,VALID,0,VALID,96.3406,VALID,-0.0169808,VALID,19.7243,VALID,253,VALID,0,
2008-02-10, 02:43:00,VALID,915.993,VALID,0,VALID,96.5135,VALID,0.0339617,VALID,19.6878,VALID,258,VALID,0,
2008-02-10, 02:44:00,VALID,916.011,VALID,0,VALID,96.7271,VALID,0,VALID,19.6389,VALID,265,VALID,0,
2008-02-10, 02:45:00,VALID,916.021,VALID,0,VALID,96.9573,VALID,0,VALID,19.6002,VALID,264,VALID,0.269141,
2008-02-10, 02:46:00,VALID,916.053,VALID,0,VALID,97.204,VALID,0,VALID,19.5645,VALID,258,VALID,0.31064,
2008-02-10, 02:47:00,VALID,916.064,VALID,0,VALID,97.4125,VALID,0.0339617,VALID,19.5324,VALID,260,VALID,0.423651,
2008-02-10, 02:48:00,VALID,916.078,VALID,0,VALID,97.5194,VALID,0,VALID,19.5226,VALID,258,VALID,0.236607,
2008-02-10, 02:49:00,VALID,916.083,VALID,0,VALID,97.6058,VALID,0.0169808,VALID,19.5096,VALID,258,VALID,0.561955,
2008-02-10, 02:50:00,VALID,916.077,VALID,0,VALID,97.6427,VALID,0.0169808,VALID,19.5029,VALID,253,VALID,0,
2008-02-10, 02:51:00,VALID,916.057,VALID,0,VALID,97.6986,VALID,0.0509425,VALID,19.486,VALID,211,VALID,0,
2008-02-10, 02:52:00,VALID,916.037,VALID,0,VALID,97.7495,VALID,0.0509425,VALID,19.4929,VALID,207,VALID,0,
2008-02-10, 02:53:00,VALID,916.018,VALID,0,VALID,97.7482,VALID,0.0169808,VALID,19.4834,VALID,207,VALID,0,
2008-02-10, 02:54:00,VALID,915.993,VALID,0,VALID,97.7597,VALID,0.0169808,VALID,19.47,VALID,207,VALID,0,
2008-02-10, 02:55:00,VALID,915.951,VALID,0,VALID,97.7788,VALID,0.0169808,VALID,19.457,VALID,207,VALID,0,
2008-02-10, 02:56:00,VALID,915.922,VALID,0,VALID,97.7813,VALID,0.0339617,VALID,19.464,VALID,207,VALID,0,
2008-02-10, 02:57:00,VALID,915.882,VALID,0,VALID,97.7927,VALID,0.0169808,VALID,19.4378,VALID,83,VALID,0,
2008-02-10, 02:58:00,VALID,915.845,VALID,0,VALID,97.8919,VALID,0.0169808,VALID,19.4088,VALID,59,VALID,0,
2008-02-10, 02:59:00,VALID,915.821,VALID,0,VALID,98.0267,VALID,0.0509425,VALID,19.3627,VALID,58,VALID,0,
2008-02-10, 03:00:00,VALID,915.846,VALID,0,VALID,98.1908,VALID,0.0679233,VALID,19.33,VALID,58,VALID,0,
2008-02-10, 03:01:00,VALID,915.869,VALID,0,VALID,98.2607,VALID,0.0169808,VALID,19.3242,VALID,61,VALID,0,
2008-02-10, 03:02:00,VALID,915.877,VALID,0,VALID,98.248,VALID,0.0169808,VALID,19.2856,VALID,90,VALID,0,
2008-02-10, 03:03:00,VALID,915.9,VALID,0,VALID,98.4146,VALID,0,VALID,19.2434,VALID,100,VALID,0,
2008-02-10, 03:04:00,VALID,915.91,VALID,0,VALID,98.618,VALID,0,VALID,19.2179,VALID,96,VALID,0,
2008-02-10, 03:05:00,VALID,915.935,VALID,0,VALID,98.7935,VALID,-0.0169808,VALID,19.1952,VALID,93,VALID,0,
2008-02-10, 03:06:00,VALID,915.957,VALID,0,VALID,98.9156,VALID,-0.0169808,VALID,19.169,VALID,93,VALID,0,
2008-02-10, 03:07:00,VALID,915.988,VALID,0,VALID,99.0237,VALID,0,VALID,19.153,VALID,93,VALID,0,
2008-02-10, 03:08:00,VALID,916.017,VALID,0,VALID,99.1305,VALID,0,VALID,19.1463,VALID,93,VALID,0,
2008-02-10, 03:09:00,VALID,916.053,VALID,0,VALID,99.2119,VALID,0,VALID,19.1558,VALID,93,VALID,0,
2008-02-10, 03:10:00,VALID,916.095,VALID,0,VALID,99.2958,VALID,0,VALID,19.1725,VALID,93,VALID,0,
2008-02-10, 03:11:00,VALID,916.109,VALID,0,VALID,99.2551,VALID,-0.0169808,VALID,19.1885,VALID,88,VALID,0,
2008-02-10, 03:12:00,VALID,916.122,VALID,0,VALID,99.2538,VALID,0,VALID,19.1885,VALID,77,VALID,0,
2008-02-10, 03:13:00,VALID,916.143,VALID,0,VALID,99.2653,VALID,0.0169808,VALID,19.211,VALID,69,VALID,0,
2008-02-10, 03:14:00,VALID,916.152,VALID,0,VALID,99.2729,VALID,-0.0169808,VALID,19.2339,VALID,69,VALID,0,
2008-02-10, 03:15:00,VALID,916.162,VALID,0,VALID,99.2233,VALID,-0.0169808,VALID,19.2534,VALID,69,VALID,0,
2008-02-10, 03:16:00,VALID,916.153,VALID,0,VALID,99.1801,VALID,0.0169808,VALID,19.2566,VALID,69,VALID,0,
2008-02-10, 03:17:00,VALID,916.162,VALID,0,VALID,99.1712,VALID,0,VALID,19.2594,VALID,69,VALID,0,
2008-02-10, 03:18:00,VALID,916.151,VALID,0,VALID,99.1368,VALID,0,VALID,19.2686,VALID,69,VALID,0,
2008-02-10, 03:19:00,VALID,916.15,VALID,0,VALID,99.0783,VALID,-0.0169808,VALID,19.2988,VALID,69,VALID,0,
2008-02-10, 03:20:00,VALID,916.141,VALID,0,VALID,98.8876,VALID,0,VALID,19.2955,VALID,69,VALID,0,
2008-02-10, 03:21:00,VALID,916.129,VALID,0,VALID,98.7821,VALID,0.0169808,VALID,19.2858,VALID,69,VALID,0,
2008-02-10, 03:22:00,VALID,916.115,VALID,0,VALID,98.7617,VALID,0.0169808,VALID,19.2596,VALID,69,VALID,0,
2008-02-10, 03:23:00,VALID,916.113,VALID,0,VALID,98.7554,VALID,0,VALID,19.2469,VALID,69,VALID,0,
2008-02-10, 03:24:00,VALID,916.109,VALID,0,VALID,98.81,VALID,0.0339617,VALID,19.2274,VALID,69,VALID,0,
2008-02-10, 03:25:00,VALID,916.083,VALID,0,VALID,98.852,VALID,0,VALID,19.2112,VALID,69,VALID,0,
2008-02-10, 03:26:00,VALID,916.074,VALID,0,VALID,98.8838,VALID,0,VALID,19.195,VALID,69,VALID,0,
2008-02-10, 03:27:00,VALID,916.05,VALID,0,VALID,99.0389,VALID,-0.0169808,VALID,19.182,VALID,69,VALID,0,
2008-02-10, 03:28:00,VALID,916.032,VALID,0,VALID,99.0415,VALID,0,VALID,19.1982,VALID,69,VALID,0,
2008-02-10, 03:29:00,VALID,916.014,VALID,0,VALID,98.9092,VALID,-0.0339617,VALID,19.1658,VALID,69,VALID,0,
2008-02-10, 03:30:00,VALID,915.991,VALID,0,VALID,99.0326,VALID,-0.0169808,VALID,19.1366,VALID,69,VALID,0,
2008-02-10, 03:31:00,VALID,915.952,VALID,0,VALID,99.3759,VALID,-0.0169808,VALID,19.1728,VALID,69,VALID,0,
2008-02-10, 03:32:00,VALID,915.945,VALID,0,VALID,99.1597,VALID,0.0169808,VALID,19.2309,VALID,88,VALID,0,
2008-02-10, 03:33:00,VALID,915.916,VALID,0,VALID,98.9855,VALID,0,VALID,19.2274,VALID,119,VALID,0,
2008-02-10, 03:34:00,VALID,915.888,VALID,0,VALID,99.0122,VALID,0,VALID,19.2309,VALID,116,VALID,0,
2008-02-10, 03:35:00,VALID,915.855,VALID,0,VALID,99.133,VALID,0,VALID,19.2404,VALID,110,VALID,0,
2008-02-10, 03:36:00,VALID,915.808,VALID,0,VALID,98.9779,VALID,0,VALID,19.2496,VALID,102,VALID,0.470448,